2020/08/08 23:31:50+0000,-39.51,-44.83,-34.96,-49.11,-55.42,-55.60
2020/08/08 23:32:42+0000,-40.01,-44.79,-36.92,-48.40,-55.06,-55.90
2020/08/08 23:33:34+0000,-39.91,-43.62,-34.62,-49.48,-55.18,-56.24
2020/08/08 23:34:26+0000,-40.81,-43.61,-34.34,-48.99,-55.42,-55.86
2020/08/08 23:35:18+0000,-40.18,-43.81,-35.02,-50.10,-55.00,-55.67
2020/08/08 23:36:10+0000,-40.55,-44.39,-34.74,-49.71,-55.04,-56.16
2020/08/08 23:37:02+0000,-40.31,-45.02,-35.84,-49.16,-55.01,-55.88
2020/08/08 23:37:54+0000,-40.89,-43.69,-35.13,-48.72,-54.52,-56.15
2020/08/08 23:38:47+0000,-40.89,-43.01,-34.59,-50.11,-54.24,-55.02
2020/08/08 23:39:39+0000,-39.72,-44.21,-34.36,-50.77,-55.30,-54.97
2020/08/08 23:40:31+0000,-39.77,-43.76,-34.06,-49.86,-54.48,-55.27
2020/08/08 23:41:30+0000,-41.00,-44.07,-35.20,-50.01,-54.33,-55.53
2020/08/08 23:42:22+0000,-40.37,-43.55,-34.50,-50.45,-54.97,-54.88
2020/08/08 23:43:14+0000,-40.22,-44.57,-35.72,-49.01,-55.44,-55.25
2020/08/08 23:44:06+0000,-40.57,-44.10,-34.47,-49.55,-55.15,-55.88
2020/08/08 23:44:58+0000,-40.67,-43.01,-35.92,-49.17,-55.07,-56.26
2020/08/08 23:45:50+0000,-40.35,-44.22,-35.53,-49.94,-54.90,-55.35
2020/08/08 23:46:42+0000,-40.27,-43.67,-34.24,-49.94,-54.91,-56.26
2020/08/08 23:47:34+0000,-40.40,-43.39,-34.43,-50.35,-54.19,-55.13
2020/08/08 23:48:26+0000,-40.64,-43.77,-34.45,-60.22,-54.94,-56.07
2020/08/08 23:49:18+0000,-40.70,-44.04,-33.27,-50.27,-54.10,-55.73
2020/08/08 23:50:11+0000,-39.19,-44.50,-33.93,-49.67,-54.63,-56.25
2020/08/08 23:51:09+0000,-40.53,-44.30,-33.54,-50.69,-54.63,-55.46
2020/08/08 23:52:01+0000,-40.02,-44.71,-33.81,-50.13,-53.64,-55.98
2020/08/08 23:52:54+0000,-40.53,-44.02,-62.74,-49.41,-54.29,-56.08
2020/08/08 23:53:46+0000,-40.44,-43.76,-33.09,-50.30,-55.37,-56.08
2020/08/08 23:54:38+0000,-40.47,-43.97,-33.01,-50.49,-54.92,-55.65
2020/08/08 23:55:30+0000,-39.91,-44.07,-33.65,-50.06,-55.03,-55.98
2020/08/08 23:56:22+0000,-39.79,-43.18,-33.82,-49.99,-55.04,-56.06
2020/08/08 23:57:14+0000,-39.48,-44.43,-33.47,-50.25,-55.20,-55.72
2020/08/08 23:58:06+0000,-40.87,-44.15,-33.62,-50.16,-55.07,-55.71
2020/08/08 23:58:58+0000,-40.25,-44.57,-34.04,-49.78,-54.73,-56.01
2020/08/08 23:59:50+0000,-39.51,-44.30,-33.82,-50.16,-54.34,-55.57
2020/08/09 00:00:45+0000,-40.41,-43.59,-33.27,-49.27,-55.34,-55.62
2020/08/09 00:01:46+0000,-39.31,-43.35,-33.85,-49.03,-54.44,-55.70
2020/08/09 00:02:38+0000,-40.62,-43.67,-62.80,-49.91,-55.41,-55.34
2020/08/09 00:03:30+0000,-40.45,-43.72,-33.64,-49.51,-54.59,-56.09
2020/08/09 00:04:22+0000,-40.31,-43.56,-62.48,-49.53,-54.39,-55.72
2020/08/09 00:05:14+0000,-40.80,-44.33,-33.94,-49.98,-54.77,-55.96
2020/08/09 00:06:06+0000,-40.02,-43.25,-62.32,-49.99,-54.32,-55.68
2020/08/09 00:06:58+0000,-40.98,-44.29,-34.01,-49.05,-54.85,-56.03
2020/08/09 00:07:50+0000,-40.85,-44.50,-35.98,-49.63,-56.39,-55.84
2020/08/09 00:08:42+0000,-40.80,-44.27,-35.30,-49.88,-55.07,-55.84
2020/08/09 00:09:34+0000,-41.45,-43.92,-35.84,-50.05,-55.39,-55.98
2020/08/09 00:10:26+0000,-40.93,-43.64,-33.51,-49.67,-55.87,-56.00
2020/08/09 00:11:26+0000,-40.37,-44.44,-61.57,-50.44,-55.17,-55.98
2020/08/09 00:12:18+0000,-40.57,-44.80,-33.45,-51.51,-55.62,-55.69
2020/08/09 00:13:10+0000,-39.77,-44.89,-62.40,-50.80,-55.48,-55.33
2020/08/09 00:14:02+0000,-41.09,-43.54,-33.72,-51.27,-56.71,-56.55
2020/08/09 00:14:54+0000,-40.64,-44.79,-62.32,-50.35,-55.43,-56.50
2020/08/09 00:15:46+0000,-40.23,-45.22,-33.78,-50.76,-56.27,-56.32
2020/08/09 00:16:38+0000,-40.85,-44.61,-33.47,-50.39,-56.78,-55.96
2020/08/09 00:17:30+0000,-40.98,-43.45,-35.87,-50.03,-56.38,-56.15
2020/08/09 00:18:22+0000,-40.42,-43.33,-35.56,-50.36,-55.81,-55.50
2020/08/09 00:19:14+0000,-40.19,-43.77,-33.49,-49.88,-55.55,-55.53
2020/08/09 00:20:07+0000,-40.66,-43.40,-33.14,-49.98,-55.44,-55.31
2020/08/09 00:21:06+0000,-40.37,-43.03,-33.31,-50.48,-52.81,-55.34
2020/08/09 00:21:58+0000,-40.94,-44.32,-33.58,-50.66,-55.53,-55.35
2020/08/09 00:22:50+0000,-40.72,-43.64,-33.81,-51.22,-55.34,-55.68
2020/08/09 00:23:42+0000,-39.74,-46.06,-33.47,-50.16,-56.21,-55.97
2020/08/09 00:24:34+0000,-39.83,-46.89,-33.40,-50.22,-56.11,-55.53
2020/08/09 00:25:26+0000,-39.82,-45.87,-33.64,-49.95,-56.58,-55.95
2020/08/09 00:26:18+0000,-39.78,-46.11,-33.76,-50.15,-56.91,-55.39
2020/08/09 00:27:10+0000,-41.06,-45.96,-33.33,-50.23,-56.14,-56.07
2020/08/09 00:28:03+0000,-39.58,-45.96,-33.69,-50.10,-55.21,-55.52
2020/08/09 00:28:55+0000,-39.95,-46.40,-62.72,-49.78,-56.09,-55.13
2020/08/09 00:29:47+0000,-38.98,-45.92,-32.85,-50.56,-55.77,-56.15
2020/08/09 00:30:39+0000,-39.18,-46.21,-60.52,-50.40,-55.74,-55.66
2020/08/09 00:31:38+0000,-39.73,-45.70,-61.93,-50.54,-55.78,-55.38
2020/08/09 00:32:30+0000,-39.62,-45.60,-32.87,-51.03,-55.72,-55.74
2020/08/09 00:33:22+0000,-40.10,-46.11,-62.45,-50.92,-55.82,-55.92
2020/08/09 00:34:14+0000,-39.04,-45.54,-33.29,-49.99,-56.04,-55.57
2020/08/09 00:35:07+0000,-38.88,-46.74,-33.49,-48.84,-55.50,-55.68
2020/08/09 00:35:59+0000,-39.23,-45.63,-33.73,-49.59,-55.63,-55.69
2020/08/09 00:36:51+0000,-39.99,-45.81,-33.15,-50.12,-55.58,-55.46
2020/08/09 00:37:43+0000,-39.16,-46.05,-33.61,-49.08,-55.74,-56.26
2020/08/09 00:38:35+0000,-39.65,-45.69,-33.57,-49.42,-54.94,-56.06
2020/08/09 00:39:27+0000,-38.57,-45.44,-32.84,-45.86,-54.91,-55.23
2020/08/09 00:40:19+0000,-38.59,-45.74,-33.40,-50.44,-55.26,-55.09
2020/08/09 00:41:18+0000,-39.27,-45.47,-33.97,-49.49,-54.93,-55.01
2020/08/09 00:42:10+0000,-39.53,-45.73,-63.33,-49.56,-54.56,-55.52
2020/08/09 00:43:02+0000,-39.76,-44.80,-33.35,-46.21,-55.50,-55.32
2020/08/09 00:43:54+0000,-39.54,-44.77,-61.61,-45.72,-56.04,-56.19
2020/08/09 00:44:47+0000,-39.04,-45.05,-33.77,-50.34,-55.70,-56.37
2020/08/09 00:45:39+0000,-39.36,-45.41,-62.64,-49.24,-55.96,-55.31
2020/08/09 00:46:31+0000,-39.48,-45.12,-33.14,-46.67,-55.59,-55.37
2020/08/09 00:47:23+0000,-39.48,-45.80,-61.59,-46.79,-55.68,-56.04
2020/08/09 00:48:15+0000,-40.03,-45.80,-35.23,-50.01,-55.60,-55.33
2020/08/09 00:49:07+0000,-38.77,-45.48,-35.00,-50.02,-54.88,-55.24
2020/08/09 00:49:59+0000,-38.55,-44.91,-35.56,-60.03,-56.00,-55.97
2020/08/09 00:50:51+0000,-39.41,-45.84,-36.19,-46.27,-54.82,-55.84
2020/08/09 00:51:50+0000,-38.85,-45.57,-35.71,-50.19,-55.75,-55.41
2020/08/09 00:52:42+0000,-40.15,-46.22,-36.05,-49.69,-54.11,-55.59
2020/08/09 00:53:34+0000,-39.49,-45.28,-36.16,-50.26,-54.48,-55.64
2020/08/09 00:54:26+0000,-39.42,-45.19,-36.00,-49.13,-55.08,-55.29
2020/08/09 00:55:18+0000,-40.36,-45.81,-35.47,-60.54,-54.84,-55.31
2020/08/09 00:56:10+0000,-39.80,-45.65,-35.80,-49.18,-54.55,-55.71
2020/08/09 00:57:02+0000,-39.73,-45.72,-35.91,-62.74,-55.17,-55.69
2020/08/09 00:57:54+0000,-40.22,-45.44,-35.99,-50.68,-54.84,-56.08
2020/08/09 00:58:47+0000,-40.27,-46.01,-34.27,-62.11,-54.26,-55.60
2020/08/09 00:59:39+0000,-39.50,-46.09,-34.24,-50.13,-55.33,-55.32
2020/08/09 01:00:31+0000,-40.45,-45.61,-35.23,-50.58,-55.02,-55.69
2020/08/09 01:01:31+0000,-40.25,-45.49,-35.81,-50.70,-55.70,-55.14
2020/08/09 01:02:23+0000,-39.58,-44.73,-35.06,-50.55,-55.11,-55.36
2020/08/09 01:03:15+0000,-39.69,-45.33,-33.26,-50.32,-55.04,-55.27
2020/08/09 01:04:07+0000,-39.90,-45.00,-34.20,-46.75,-55.46,-55.66
2020/08/09 01:04:59+0000,-39.63,-45.87,-33.90,-50.97,-55.58,-55.80
2020/08/09 01:05:51+0000,-38.96,-45.44,-34.73,-51.61,-55.12,-55.28
2020/08/09 01:06:43+0000,-40.28,-45.20,-33.44,-46.35,-55.10,-55.99
2020/08/09 01:07:35+0000,-40.00,-46.14,-33.89,-46.11,-54.99,-55.81
2020/08/09 01:08:27+0000,-40.12,-45.34,-33.45,-50.80,-55.18,-55.92
2020/08/09 01:09:20+0000,-39.80,-45.28,-33.51,-50.45,-55.04,-55.96
2020/08/09 01:10:12+0000,-40.07,-45.49,-34.44,-46.25,-55.37,-55.91
2020/08/09 01:11:11+0000,-38.97,-44.93,-33.17,-46.33,-55.46,-55.60
2020/08/09 01:12:03+0000,-39.71,-45.62,-32.83,-50.90,-55.99,-56.13
2020/08/09 01:12:56+0000,-39.30,-45.47,-33.00,-49.98,-55.80,-55.35
2020/08/09 01:13:48+0000,-39.04,-46.65,-33.21,-50.61,-55.47,-55.34
2020/08/09 01:14:40+0000,-40.33,-45.07,-33.36,-49.50,-55.87,-56.49
2020/08/09 01:15:32+0000,-40.14,-45.50,-34.28,-50.25,-55.23,-55.73
2020/08/09 01:16:24+0000,-40.14,-45.29,-33.25,-50.71,-53.80,-55.68
2020/08/09 01:17:16+0000,-39.89,-45.44,-33.84,-50.64,-54.93,-55.86
2020/08/09 01:18:08+0000,-39.72,-44.98,-33.13,-45.94,-55.83,-55.62
2020/08/09 01:19:00+0000,-39.55,-44.79,-33.45,-51.10,-55.01,-55.42
2020/08/09 01:19:52+0000,-39.10,-44.82,-33.41,-51.11,-55.39,-55.68
2020/08/09 01:20:45+0000,-40.50,-45.55,-33.52,-46.37,-54.98,-54.99
2020/08/09 01:21:44+0000,-39.68,-44.79,-33.63,-45.95,-55.65,-56.04
2020/08/09 01:22:36+0000,-39.30,-45.29,-33.24,-49.87,-55.08,-55.67
2020/08/09 01:23:28+0000,-39.67,-45.61,-33.54,-51.25,-55.00,-55.29
2020/08/09 01:24:20+0000,-38.90,-46.17,-33.52,-51.37,-55.69,-55.15
2020/08/09 01:25:12+0000,-38.80,-45.99,-33.01,-50.13,-55.90,-55.66
2020/08/09 01:26:04+0000,-38.40,-45.39,-33.49,-51.36,-54.86,-55.73
2020/08/09 01:26:57+0000,-39.59,-45.52,-33.20,-50.98,-55.55,-55.97
2020/08/09 01:27:49+0000,-39.56,-45.75,-32.78,-51.10,-55.29,-55.18
2020/08/09 01:28:41+0000,-39.77,-45.52,-33.40,-50.32,-55.22,-55.42
2020/08/09 01:29:33+0000,-38.78,-45.87,-33.47,-51.37,-54.87,-55.76
2020/08/09 01:30:25+0000,-39.32,-45.39,-33.18,-51.16,-55.49,-55.78
2020/08/09 01:31:24+0000,-39.07,-45.86,-33.55,-51.20,-55.24,-55.74
2020/08/09 01:32:16+0000,-39.07,-45.92,-33.13,-50.14,-54.76,-56.15
2020/08/09 01:33:08+0000,-39.15,-45.70,-33.33,-51.41,-54.75,-56.11
2020/08/09 01:34:00+0000,-38.44,-45.46,-33.23,-51.30,-54.37,-55.68
2020/08/09 01:34:52+0000,-38.51,-46.03,-33.41,-51.11,-54.88,-55.82
2020/08/09 01:35:44+0000,-39.43,-45.43,-33.76,-51.78,-55.00,-55.77
2020/08/09 01:36:36+0000,-39.46,-45.97,-33.37,-50.46,-55.29,-55.72
2020/08/09 01:37:29+0000,-39.01,-45.14,-33.35,-49.91,-54.99,-55.27
2020/08/09 01:38:21+0000,-39.00,-45.63,-33.60,-51.19,-54.53,-55.50
2020/08/09 01:39:13+0000,-38.24,-45.72,-33.31,-50.51,-55.25,-55.86
2020/08/09 01:40:05+0000,-38.93,-44.60,-33.82,-51.05,-54.82,-55.29
2020/08/09 01:41:09+0000,-39.30,-45.47,-33.86,-49.55,-55.55,-55.21
2020/08/09 01:42:02+0000,-38.19,-45.50,-33.57,-50.27,-54.26,-55.48
2020/08/09 01:42:54+0000,-38.06,-46.01,-33.72,-50.59,-55.40,-55.25
2020/08/09 01:43:46+0000,-38.89,-46.16,-33.53,-49.93,-55.28,-55.83
2020/08/09 01:44:38+0000,-38.36,-45.90,-33.68,-50.45,-55.82,-55.67
2020/08/09 01:45:30+0000,-38.89,-45.48,-33.33,-50.73,-55.44,-55.31
2020/08/09 01:46:22+0000,-38.65,-46.69,-33.41,-50.46,-55.73,-55.49
2020/08/09 01:47:14+0000,-38.80,-45.28,-33.96,-50.18,-55.13,-55.53
2020/08/09 01:48:06+0000,-39.41,-45.69,-32.42,-50.54,-54.36,-55.63
2020/08/09 01:48:58+0000,-39.10,-45.05,-33.78,-50.53,-55.84,-55.50
2020/08/09 01:49:50+0000,-39.30,-46.05,-33.28,-51.49,-54.81,-55.71
2020/08/09 01:50:42+0000,-38.64,-45.34,-33.88,-50.47,-55.56,-56.35
2020/08/09 01:51:44+0000,-39.49,-45.37,-33.84,-49.96,-55.73,-55.88
2020/08/09 01:52:36+0000,-39.05,-46.49,-33.41,-49.66,-56.29,-55.51
2020/08/09 01:53:28+0000,-38.34,-45.23,-34.18,-49.80,-55.63,-56.11
2020/08/09 01:54:20+0000,-39.08,-45.57,-33.83,-50.09,-55.17,-56.31
2020/08/09 01:55:12+0000,-39.10,-45.24,-33.21,-50.10,-55.73,-55.68
2020/08/09 01:56:04+0000,-38.99,-45.35,-33.91,-51.19,-54.44,-55.36
2020/08/09 01:56:56+0000,-39.55,-45.11,-34.36,-49.85,-54.64,-55.67
2020/08/09 01:57:48+0000,-38.58,-44.92,-33.78,-50.46,-54.74,-56.52
2020/08/09 01:58:40+0000,-38.13,-45.91,-34.10,-50.93,-55.11,-56.44
2020/08/09 01:59:32+0000,-38.26,-45.67,-33.40,-50.25,-55.08,-56.09
2020/08/09 02:00:24+0000,-38.66,-46.36,-33.63,-50.14,-54.45,-55.92
2020/08/09 02:01:38+0000,-38.10,-44.31,-33.68,-49.75,-55.90,-56.20
2020/08/09 02:02:30+0000,-37.81,-43.84,-33.30,-50.00,-55.48,-56.09
2020/08/09 02:03:22+0000,-37.89,-43.86,-34.76,-49.48,-54.64,-56.04
2020/08/09 02:04:14+0000,-38.37,-42.66,-34.66,-46.95,-54.93,-55.20
2020/08/09 02:05:06+0000,-38.28,-43.44,-33.18,-49.18,-55.62,-55.88
2020/08/09 02:05:58+0000,-38.17,-43.51,-34.53,-49.59,-55.63,-55.99
2020/08/09 02:06:50+0000,-37.39,-43.15,-34.71,-50.37,-55.69,-55.37
2020/08/09 02:07:42+0000,-37.07,-43.34,-34.89,-49.32,-55.76,-55.43
2020/08/09 02:08:34+0000,-36.11,-43.48,-34.58,-50.51,-55.86,-55.62
2020/08/09 02:09:26+0000,-36.82,-43.70,-33.10,-49.54,-54.90,-56.19
2020/08/09 02:10:19+0000,-37.95,-43.66,-34.14,-50.59,-54.30,-55.61
2020/08/09 02:11:18+0000,-37.16,-42.66,-35.89,-50.73,-55.34,-55.70
2020/08/09 02:12:10+0000,-37.55,-42.34,-35.92,-49.30,-54.10,-55.75
2020/08/09 02:13:02+0000,-36.68,-41.98,-36.38,-49.96,-54.42,-55.18
2020/08/09 02:13:54+0000,-37.41,-43.56,-36.29,-49.72,-53.96,-55.69
2020/08/09 02:14:47+0000,-38.04,-42.92,-35.02,-51.03,-54.70,-55.47
2020/08/09 02:15:39+0000,-36.92,-42.36,-35.47,-51.33,-54.72,-55.16
2020/08/09 02:16:31+0000,-37.22,-42.63,-34.79,-50.64,-54.78,-54.99
2020/08/09 02:17:23+0000,-37.00,-42.74,-35.37,-50.66,-54.76,-55.56
2020/08/09 02:18:15+0000,-37.23,-42.54,-35.53,-50.78,-53.93,-55.00
2020/08/09 02:19:07+0000,-37.16,-43.43,-35.91,-50.62,-54.29,-55.13
2020/08/09 02:19:59+0000,-37.64,-43.34,-35.13,-49.90,-55.00,-55.36
2020/08/09 02:20:51+0000,-37.93,-43.39,-35.06,-50.35,-54.77,-56.25
2020/08/09 02:21:50+0000,-38.50,-42.81,-35.31,-50.51,-54.65,-56.18
2020/08/09 02:22:42+0000,-38.09,-41.52,-35.28,-50.01,-54.61,-55.57
2020/08/09 02:23:35+0000,-36.70,-42.29,-35.47,-50.35,-55.38,-55.68
2020/08/09 02:24:27+0000,-37.37,-42.33,-35.33,-50.29,-54.38,-55.53
2020/08/09 02:25:19+0000,-36.81,-43.17,-33.42,-49.27,-55.10,-55.90
2020/08/09 02:26:11+0000,-37.04,-41.78,-33.77,-49.87,-55.00,-55.87
2020/08/09 02:27:03+0000,-37.57,-43.06,-33.78,-48.26,-55.23,-56.54
2020/08/09 02:27:55+0000,-37.10,-42.27,-34.38,-48.87,-54.53,-55.50
2020/08/09 02:28:47+0000,-38.02,-41.39,-34.35,-48.37,-54.99,-55.65
2020/08/09 02:29:39+0000,-38.65,-42.33,-35.42,-48.37,-54.87,-56.01
2020/08/09 02:30:32+0000,-38.16,-42.97,-35.56,-48.87,-54.60,-55.62
2020/08/09 02:31:31+0000,-38.33,-42.39,-35.40,-49.38,-54.33,-56.23
2020/08/09 02:32:23+0000,-39.06,-43.52,-35.51,-49.85,-54.36,-55.97
2020/08/09 02:33:15+0000,-37.71,-41.26,-35.91,-49.64,-55.35,-55.98
2020/08/09 02:34:07+0000,-39.20,-44.27,-35.68,-49.21,-53.92,-56.52
2020/08/09 02:34:59+0000,-38.78,-42.66,-35.32,-49.78,-53.90,-56.42
2020/08/09 02:35:51+0000,-37.63,-42.90,-35.68,-49.53,-54.43,-55.37
2020/08/09 02:36:43+0000,-38.21,-40.59,-35.44,-49.21,-54.09,-55.61
2020/08/09 02:37:35+0000,-37.45,-42.90,-35.54,-50.17,-54.35,-55.94
2020/08/09 02:38:27+0000,-38.38,-41.97,-35.96,-49.21,-54.74,-56.05
2020/08/09 02:39:19+0000,-37.89,-42.07,-35.16,-49.56,-53.79,-56.11
2020/08/09 02:40:12+0000,-38.44,-42.73,-35.58,-48.91,-53.49,-56.03
2020/08/09 02:41:12+0000,-37.82,-40.97,-35.08,-48.50,-55.11,-56.41
2020/08/09 02:42:04+0000,-38.03,-42.01,-34.95,-49.72,-55.21,-55.63
2020/08/09 02:42:56+0000,-37.60,-42.08,-35.70,-48.84,-55.31,-56.68
2020/08/09 02:43:48+0000,-35.91,-41.73,-35.98,-50.24,-55.11,-56.08
2020/08/09 02:44:40+0000,-38.90,-41.98,-35.01,-49.26,-55.65,-55.94
2020/08/09 02:45:32+0000,-38.67,-41.95,-35.26,-49.47,-55.49,-55.98
2020/08/09 02:46:24+0000,-36.80,-42.69,-36.20,-49.62,-56.01,-55.93
2020/08/09 02:47:16+0000,-38.53,-42.15,-35.84,-48.32,-54.99,-55.59
2020/08/09 02:48:08+0000,-38.39,-42.46,-35.86,-48.52,-55.10,-56.01
2020/08/09 02:49:00+0000,-38.10,-41.68,-35.78,-49.52,-55.26,-55.56
2020/08/09 02:49:52+0000,-36.36,-43.12,-35.01,-49.58,-55.21,-56.02
2020/08/09 02:50:44+0000,-38.89,-42.43,-36.16,-49.09,-54.71,-55.60
2020/08/09 02:51:44+0000,-39.21,-41.57,-35.34,-48.82,-55.25,-55.88
2020/08/09 02:52:36+0000,-38.77,-44.69,-35.42,-49.97,-55.88,-56.31
2020/08/09 02:53:28+0000,-36.90,-43.19,-34.77,-50.60,-55.42,-56.31
2020/08/09 02:54:20+0000,-38.89,-43.09,-34.96,-50.27,-54.94,-56.51
2020/08/09 02:55:12+0000,-38.30,-41.68,-35.45,-49.27,-55.20,-55.63
2020/08/09 02:56:04+0000,-38.70,-42.71,-35.36,-50.14,-54.78,-56.03
2020/08/09 02:56:56+0000,-35.95,-41.97,-34.91,-49.36,-55.63,-56.40
2020/08/09 02:57:48+0000,-37.90,-42.20,-35.20,-48.39,-55.16,-56.00
2020/08/09 02:58:40+0000,-37.77,-42.58,-34.75,-47.57,-55.18,-56.13
2020/08/09 02:59:32+0000,-38.09,-44.32,-35.44,-50.09,-55.09,-56.76
2020/08/09 03:00:25+0000,-38.17,-43.85,-34.59,-49.82,-55.23,-55.96
2020/08/09 03:01:25+0000,-37.72,-42.64,-34.66,-49.66,-55.35,-56.52
2020/08/09 03:02:17+0000,-38.33,-43.57,-35.48,-48.67,-54.54,-55.88
2020/08/09 03:03:09+0000,-37.51,-42.34,-36.01,-49.49,-55.15,-56.15
2020/08/09 03:04:01+0000,-38.15,-43.60,-35.15,-49.56,-55.47,-56.16
2020/08/09 03:04:53+0000,-37.98,-43.81,-35.08,-48.59,-54.61,-56.28
2020/08/09 03:05:45+0000,-37.82,-41.68,-35.00,-49.82,-54.61,-55.90
2020/08/09 03:06:37+0000,-38.00,-43.24,-35.10,-49.78,-54.67,-55.93
2020/08/09 03:07:29+0000,-38.66,-43.46,-34.94,-49.07,-54.47,-56.35
2020/08/09 03:08:21+0000,-37.57,-44.60,-34.73,-49.45,-54.78,-56.39
2020/08/09 03:09:13+0000,-37.90,-41.79,-34.62,-48.96,-54.65,-56.33
2020/08/09 03:10:06+0000,-37.71,-44.03,-35.09,-48.81,-54.13,-56.09
2020/08/09 03:11:05+0000,-37.61,-43.78,-37.19,-49.06,-54.78,-55.92
2020/08/09 03:11:57+0000,-37.25,-41.21,-37.21,-49.16,-55.36,-56.13
2020/08/09 03:12:49+0000,-38.13,-42.07,-37.04,-49.13,-55.39,-55.46
2020/08/09 03:13:41+0000,-37.57,-42.62,-36.93,-48.07,-55.12,-56.07
2020/08/09 03:14:33+0000,-37.51,-41.56,-36.57,-49.40,-55.21,-55.99
2020/08/09 03:15:25+0000,-38.05,-43.30,-36.66,-48.23,-54.38,-55.70
2020/08/09 03:16:17+0000,-36.72,-42.25,-36.45,-48.64,-54.05,-55.97
2020/08/09 03:17:09+0000,-37.18,-42.03,-36.63,-47.62,-55.10,-56.18
2020/08/09 03:18:01+0000,-37.85,-41.76,-36.95,-48.35,-55.87,-56.17
2020/08/09 03:18:53+0000,-38.37,-42.12,-36.66,-47.77,-54.36,-56.18
2020/08/09 03:19:46+0000,-37.43,-42.65,-36.30,-49.07,-55.47,-56.54
2020/08/09 03:20:38+0000,-37.96,-43.29,-36.65,-48.65,-55.43,-56.05
2020/08/09 03:21:40+0000,-37.40,-42.96,-36.67,-48.55,-55.66,-56.45
2020/08/09 03:22:32+0000,-39.29,-41.44,-36.98,-48.49,-55.62,-55.94
2020/08/09 03:23:24+0000,-39.17,-42.11,-37.17,-49.43,-55.79,-56.32
2020/08/09 03:24:16+0000,-39.11,-41.43,-35.19,-48.96,-55.21,-56.18
2020/08/09 03:25:08+0000,-38.43,-42.65,-35.90,-48.79,-55.66,-56.32
2020/08/09 03:26:00+0000,-39.05,-41.28,-36.69,-48.46,-56.46,-56.21
2020/08/09 03:26:52+0000,-37.62,-43.80,-36.21,-48.95,-56.43,-56.20
2020/08/09 03:27:44+0000,-38.63,-42.16,-36.40,-48.72,-56.14,-55.68
2020/08/09 03:28:36+0000,-39.32,-43.16,-36.09,-49.14,-56.53,-56.03
2020/08/09 03:29:28+0000,-37.90,-41.37,-36.35,-48.88,-55.71,-56.26
2020/08/09 03:30:20+0000,-36.97,-44.31,-37.22,-49.37,-55.31,-56.87
2020/08/09 03:31:20+0000,-39.45,-43.99,-37.37,-49.66,-56.16,-56.65
2020/08/09 03:32:12+0000,-38.58,-42.23,-36.24,-48.44,-56.55,-56.69
2020/08/09 03:33:05+0000,-39.25,-41.87,-36.97,-49.31,-55.20,-56.44
2020/08/09 03:33:57+0000,-38.99,-42.23,-37.68,-49.50,-55.65,-56.07
2020/08/09 03:34:49+0000,-37.08,-42.38,-36.92,-49.36,-56.12,-56.30
2020/08/09 03:35:41+0000,-38.42,-42.08,-36.65,-49.12,-55.36,-56.19
2020/08/09 03:36:33+0000,-39.45,-41.77,-37.93,-48.90,-55.16,-56.49
2020/08/09 03:37:25+0000,-34.04,-41.63,-36.79,-48.84,-55.20,-56.37
2020/08/09 03:38:17+0000,-35.45,-42.46,-37.21,-49.18,-55.74,-56.61
2020/08/09 03:39:09+0000,-38.83,-42.45,-36.82,-49.55,-56.33,-56.90
2020/08/09 03:40:01+0000,-40.49,-42.66,-36.16,-49.70,-56.42,-55.84
2020/08/09 03:41:00+0000,-39.21,-43.11,-36.75,-50.25,-56.80,-55.77
2020/08/09 03:41:52+0000,-34.91,-44.15,-37.11,-49.82,-56.48,-56.26
2020/08/09 03:42:44+0000,-39.85,-42.91,-37.60,-50.09,-56.04,-56.07
2020/08/09 03:43:36+0000,-38.33,-44.76,-36.26,-50.58,-55.72,-57.07
2020/08/09 03:44:28+0000,-33.55,-42.13,-37.55,-50.36,-55.90,-56.06
2020/08/09 03:45:21+0000,-38.00,-41.95,-37.65,-50.62,-56.54,-56.01
2020/08/09 03:46:13+0000,-39.09,-41.31,-37.67,-50.64,-56.24,-55.73
2020/08/09 03:47:05+0000,-39.61,-41.02,-36.95,-50.64,-56.34,-55.86
2020/08/09 03:47:57+0000,-35.99,-43.21,-36.60,-50.72,-55.76,-55.94
2020/08/09 03:48:49+0000,-34.16,-41.48,-37.40,-51.16,-55.98,-56.44
2020/08/09 03:49:41+0000,-38.95,-43.42,-37.55,-50.74,-55.91,-56.52
2020/08/09 03:50:33+0000,-38.01,-43.17,-37.08,-50.29,-55.77,-56.35
2020/08/09 03:51:32+0000,-37.63,-42.38,-37.08,-49.83,-55.68,-56.56
2020/08/09 03:52:25+0000,-33.75,-42.24,-37.39,-50.40,-55.77,-56.20
2020/08/09 03:53:17+0000,-39.24,-43.04,-37.65,-50.84,-55.73,-56.40
2020/08/09 03:54:09+0000,-37.42,-42.18,-37.01,-50.64,-55.79,-56.43
2020/08/09 03:55:01+0000,-38.76,-42.65,-37.91,-50.94,-56.49,-55.75
2020/08/09 03:55:53+0000,-34.72,-43.44,-36.98,-51.34,-55.35,-55.99
2020/08/09 03:56:45+0000,-38.76,-43.66,-36.54,-51.05,-55.73,-56.03
2020/08/09 03:57:37+0000,-36.36,-45.06,-37.55,-51.12,-54.86,-56.04
2020/08/09 03:58:29+0000,-30.73,-42.41,-37.24,-51.21,-55.69,-55.63
2020/08/09 03:59:21+0000,-39.26,-43.42,-37.33,-51.69,-54.76,-55.82
2020/08/09 04:00:14+0000,-37.32,-42.90,-36.51,-52.00,-55.31,-55.81
2020/08/09 04:01:14+0000,-37.13,-42.33,-37.92,-51.56,-55.36,-56.40
2020/08/09 04:02:06+0000,-35.91,-45.48,-37.03,-51.49,-54.98,-56.30
2020/08/09 04:02:58+0000,-37.90,-42.89,-37.44,-51.33,-54.59,-55.71
2020/08/09 04:03:50+0000,-38.29,-44.87,-37.54,-50.64,-54.89,-56.03
2020/08/09 04:04:42+0000,-35.87,-43.69,-37.22,-50.16,-54.71,-56.07
2020/08/09 04:05:34+0000,-36.93,-41.43,-36.31,-51.24,-56.11,-55.68
2020/08/09 04:06:26+0000,-40.29,-41.25,-36.09,-51.32,-55.76,-56.76
2020/08/09 04:07:18+0000,-39.90,-42.17,-36.35,-52.21,-56.28,-56.36
2020/08/09 04:08:10+0000,-35.95,-42.09,-36.18,-50.23,-55.29,-55.49
2020/08/09 04:09:02+0000,-36.48,-40.37,-36.69,-51.53,-55.74,-55.94
2020/08/09 04:09:55+0000,-37.21,-42.92,-36.90,-51.63,-54.97,-55.55
2020/08/09 04:10:47+0000,-38.22,-40.38,-37.54,-50.76,-54.46,-55.79
2020/08/09 04:11:46+0000,-38.11,-40.54,-37.83,-49.78,-55.71,-56.24
2020/08/09 04:12:38+0000,-38.53,-40.39,-37.03,-48.29,-54.45,-56.06
2020/08/09 04:13:30+0000,-39.37,-41.53,-37.81,-51.40,-54.48,-55.73
2020/08/09 04:14:23+0000,-36.88,-41.59,-37.72,-51.43,-54.72,-56.21
2020/08/09 04:15:15+0000,-38.82,-43.09,-37.60,-50.84,-54.81,-55.57
2020/08/09 04:16:07+0000,-36.67,-43.49,-37.25,-51.43,-55.25,-56.10
2020/08/09 04:16:59+0000,-38.67,-41.29,-38.01,-51.62,-54.64,-55.96
2020/08/09 04:17:51+0000,-37.07,-44.61,-38.24,-51.67,-54.55,-55.28
2020/08/09 04:18:43+0000,-36.29,-42.72,-37.76,-50.36,-54.64,-55.89
2020/08/09 04:19:35+0000,-37.99,-43.29,-36.88,-50.74,-54.75,-55.78
2020/08/09 04:20:27+0000,-38.90,-42.37,-37.16,-51.91,-54.59,-55.66
2020/08/09 04:21:27+0000,-37.35,-41.67,-35.72,-50.83,-54.74,-55.78
2020/08/09 04:22:19+0000,-37.86,-42.52,-36.76,-51.64,-54.08,-55.55
2020/08/09 04:23:11+0000,-36.53,-42.93,-36.07,-51.29,-54.19,-55.99
2020/08/09 04:24:03+0000,-35.14,-41.46,-36.98,-51.75,-55.06,-55.42
2020/08/09 04:24:55+0000,-38.15,-42.34,-36.90,-51.60,-54.57,-55.36
2020/08/09 04:25:47+0000,-38.49,-42.05,-36.18,-51.14,-54.41,-55.50
2020/08/09 04:26:39+0000,-37.04,-43.70,-35.74,-51.13,-54.24,-55.93
2020/08/09 04:27:31+0000,-38.90,-40.51,-38.01,-51.67,-55.58,-55.15
2020/08/09 04:28:24+0000,-36.31,-44.56,-37.92,-51.19,-54.27,-55.57
2020/08/09 04:29:16+0000,-38.00,-43.53,-38.01,-51.04,-54.41,-55.91
2020/08/09 04:30:08+0000,-37.90,-44.01,-37.00,-51.22,-55.36,-55.32
2020/08/09 04:31:07+0000,-37.11,-44.04,-37.90,-50.83,-54.73,-56.10
2020/08/09 04:31:59+0000,-39.38,-42.61,-36.55,-51.05,-55.61,-56.08
2020/08/09 04:32:51+0000,-37.65,-46.49,-38.14,-51.43,-55.09,-55.73
2020/08/09 04:33:44+0000,-37.21,-43.38,-35.97,-50.70,-54.80,-55.68
2020/08/09 04:34:36+0000,-37.39,-45.00,-36.08,-50.58,-54.45,-55.64
2020/08/09 04:35:28+0000,-35.63,-41.19,-36.84,-50.39,-54.83,-55.87
2020/08/09 04:36:20+0000,-33.90,-43.64,-36.37,-50.88,-54.40,-56.00
2020/08/09 04:37:12+0000,-37.57,-43.27,-36.05,-51.45,-54.62,-56.23
2020/08/09 04:38:04+0000,-35.35,-43.14,-36.15,-51.53,-54.00,-55.76
2020/08/09 04:38:56+0000,-38.85,-41.84,-36.44,-51.14,-55.15,-55.57
2020/08/09 04:39:48+0000,-37.31,-43.60,-36.19,-50.61,-54.77,-55.56
2020/08/09 04:40:40+0000,-37.38,-44.52,-35.85,-51.22,-54.59,-55.67
2020/08/09 04:41:40+0000,-38.13,-44.39,-36.44,-51.60,-54.83,-55.94
2020/08/09 04:42:32+0000,-38.19,-41.79,-35.84,-52.00,-54.85,-55.94
2020/08/09 04:43:24+0000,-36.61,-43.74,-36.78,-51.97,-55.20,-55.36
2020/08/09 04:44:16+0000,-37.60,-43.85,-36.29,-50.30,-54.85,-55.52
2020/08/09 04:45:08+0000,-38.30,-46.17,-36.21,-50.83,-55.72,-55.95
2020/08/09 04:46:00+0000,-40.06,-43.12,-36.54,-51.27,-54.91,-55.68